Wind_Speed
17 17 17 16 17 17 16 15 15 16 16 15 16 15 15 15 14 14 13 13 13 12 12 11 11 11 11 11 11 11 10 10 9 8 8 9 10 10 10 10 10 10 10 10
18 18 18 18 18 17 17 16 16 17 17 16 17 17 16 16 15 15 14 14 14 13 12 12 12 12 13 12 13 12 11 11 11 10 9 10 10 10 11 12 12 12 12 11
18 19 19 19 18 18 17 16 17 18 18 17 17 17 16 16 17 16 15 15 15 14 13 13 13 13 14 14 14 13 13 12 11 11 11 11 12 12 12 12 13 13 13 12
20 20 20 20 19 18 17 17 18 18 17 17 17 16 17 16 17 17 17 17 17 16 15 15 15 15 15 15 14 13 13 13 12 12 12 13 13 13 13 13 14 14 14 13
21 21 21 20 19 19 18 18 18 18 17 18 17 17 17 17 17 18 18 18 18 18 17 17 16 16 15 15 14 14 14 14 13 13 13 14 15 14 14 14 14 14 13 13
22 22 21 21 20 20 19 19 18 18 18 18 17 16 16 18 17 17 18 18 18 18 18 18 18 17 17 16 15 15 15 15 15 15 15 15 15 15 15 15 14 13 13 13
22 22 22 21 21 20 19 18 17 18 18 18 18 18 17 17 17 16 16 17 17 17 18 18 18 18 17 17 17 15 16 16 16 16 16 16 16 16 15 15 15 14 14 15
22 22 22 22 21 20 20 19 19 18 17 16 19 18 17 17 16 16 16 17 17 18 18 18 19 19 18 18 18 17 17 17 17 17 17 17 16 16 16 15 15 15 16 15
23 23 23 22 21 21 21 21 20 19 18 18 19 19 17 15 15 16 16 17 17 18 18 18 18 19 19 19 19 17 17 17 18 17 17 17 17 16 16 16 16 16 16 15
23 23 23 23 23 23 22 22 22 21 20 19 19 19 18 15 14 14 16 17 17 18 18 18 18 18 18 19 18 18 17 17 18 18 18 18 17 17 17 17 16 16 16 16
24 24 24 24 24 23 23 24 23 22 22 20 18 17 18 17 16 17 18 18 18 18 18 18 18 18 18 18 18 18 18 18 19 19 19 19 19 17 18 17 17 17 17 17
24 24 24 24 24 24 24 24 24 23 23 22 21 19 19 19 18 18 19 19 19 19 18 18 18 18 18 19 19 18 19 19 20 20 20 20 20 19 19 18 18 18 18 17
25 25 24 23 25 24 24 24 24 24 23 23 22 21 20 20 19 19 19 19 20 20 19 19 19 19 19 19 19 19 20 21 21 21 21 20 19 20 20 19 19 19 19 18
26 26 25 24 24 24 24 24 24 24 24 23 23 22 22 21 21 20 19 19 19 20 20 19 20 20 21 20 19 19 20 21 21 21 21 21 20 20 20 20 20 19 19 19
27 27 26 25 24 24 25 25 25 25 24 23 23 23 23 23 23 21 21 21 20 21 21 21 21 21 21 20 20 21 21 21 21 22 22 22 21 21 20 20 20 20 20 20
27 27 27 27 26 26 26 25 25 25 25 25 24 24 24 25 24 22 22 21 21 21 21 22 22 22 21 21 21 21 22 23 22 22 22 22 23 23 22 21 20 20 20 20
27 27 27 27 27 27 27 26 26 26 26 26 25 24 25 25 24 23 22 22 22 22 22 22 22 22 22 22 22 22 23 23 24 23 23 23 23 23 23 23 22 21 21 21
27 27 27 26 27 28 26 26 27 27 27 26 26 26 26 26 25 24 24 23 23 22 22 23 23 23 23 23 23 23 23 24 24 24 24 23 23 23 24 23 23 23 23 23
26 26 26 26 27 27 27 27 27 28 28 27 27 27 28 27 26 26 25 25 24 23 23 24 24 24 24 24 24 24 25 25 25 25 24 24 24 24 25 24 25 25 24 24
25 25 25 26 26 26 26 27 26 27 28 28 28 28 28 28 27 26 26 25 25 24 24 25 25 25 26 25 25 25 26 26 26 26 26 26 25 25 26 26 26 26 25 24
25 25 26 26 26 26 27 27 25 26 27 27 28 28 28 28 27 26 26 26 25 25 26 26 26 26 27 27 27 26 26 27 27 27 26 27 26 26 26 26 25 25 25 25
25 25 26 26 26 27 27 26 27 27 27 28 28 27 27 27 27 27 27 26 26 26 26 26 27 28 28 28 28 27 26 27 27 27 27 27 27 27 27 25 24 24 24 24
25 25 26 26 27 27 27 27 27 27 27 27 27 27 27 27 27 27 26 27 26 26 26 26 27 28 28 28 28 28 28 27 27 27 27 27 27 27 26 25 24 24 24 24
25 25 26 26 27 28 28 28 28 27 27 27 27 28 27 27 27 27 26 26 25 25 26 26 27 27 28 28 29 28 28 28 28 27 27 27 26 26 25 24 24 24 25 25
25 25 26 25 25 26 27 28 28 28 27 27 26 26 26 26 26 26 25 25 25 24 25 27 27 28 27 28 28 28 28 28 27 26 26 26 26 25 25 24 24 24 25 25
25 26 27 26 25 26 26 27 26 26 26 26 25 25 26 26 26 25 26 26 26 26 27 27 27 28 28 28 28 28 28 28 28 27 26 25 25 25 24 24 24 24 25 25
Wind_Direction
232 232 232 233 231 230 232 232 238 243 243 241 241 244 250 254 254 255 259 262 264 267 270 275 282 286 294 297 297 298 298 304 304 302 297 297 295 293 295 295 286 283 284 290
231 231 229 231 232 232 232 233 239 245 245 242 243 246 250 255 257 257 261 262 261 263 267 274 281 283 290 296 293 294 296 300 301 300 297 296 298 295 296 297 293 288 286 286
231 231 230 230 232 233 233 233 237 243 247 247 249 253 254 254 257 257 259 261 261 261 266 274 278 284 289 291 289 290 293 298 301 300 300 299 297 296 296 298 297 293 293 291
231 231 231 232 234 233 234 235 238 243 246 251 252 255 258 256 258 258 259 260 260 259 264 271 277 283 287 288 288 286 288 293 296 297 300 301 299 296 295 297 295 295 295 293
233 233 232 232 234 234 233 237 241 246 249 252 256 256 259 260 261 262 260 258 258 259 263 269 275 280 283 286 286 283 285 289 292 293 296 299 301 297 295 294 293 293 293 290
233 234 234 234 235 235 236 240 245 248 251 254 257 259 259 260 261 262 259 257 257 259 262 266 273 276 279 283 284 282 282 286 289 291 293 295 298 299 298 295 292 292 291 288
236 237 235 234 236 236 237 240 247 251 254 258 259 259 258 260 260 257 257 256 256 258 260 264 270 273 276 279 279 278 281 284 288 291 292 292 295 298 297 292 289 288 288 286
236 237 236 235 235 237 239 239 241 246 253 258 262 260 262 264 257 254 255 257 258 261 262 265 269 270 272 275 276 274 279 283 286 288 289 289 292 295 296 291 290 288 288 288
234 237 238 237 236 237 239 241 242 246 249 252 258 265 267 266 260 254 252 256 261 263 264 266 268 268 270 272 274 274 278 284 286 288 289 288 288 290 294 293 291 289 285 284
234 237 238 237 237 238 240 242 242 244 249 254 261 267 269 265 262 256 254 258 262 262 263 266 269 268 268 270 271 273 277 282 286 285 284 284 285 287 292 293 291 291 288 285
233 236 238 238 238 241 241 242 244 246 250 253 259 263 265 264 261 259 257 258 261 261 263 265 267 268 268 270 272 274 276 282 284 287 284 283 285 288 289 290 290 291 289 284
233 236 238 241 241 243 244 245 246 248 252 255 257 259 262 264 263 261 259 258 258 260 262 262 265 267 269 272 274 276 278 282 286 287 284 282 284 285 287 290 290 290 287 283
235 236 238 241 243 242 243 242 244 247 252 255 257 261 262 262 263 264 263 261 259 260 261 262 264 267 270 273 276 279 280 282 283 283 282 281 283 285 287 288 288 288 284 281
237 239 239 241 247 249 247 244 244 247 250 255 256 257 261 260 260 262 264 264 262 261 261 262 265 266 270 273 275 277 280 282 281 281 280 280 282 284 284 285 287 287 284 281
238 240 240 240 242 245 248 249 249 249 251 254 257 257 258 259 261 262 263 263 261 259 259 261 263 264 268 271 274 275 278 280 280 280 279 280 281 283 284 284 285 285 283 283
238 240 241 241 242 244 246 248 250 251 253 255 257 257 258 260 262 262 262 261 260 260 259 259 261 263 265 269 272 274 276 278 279 279 280 281 281 283 283 282 282 282 282 282
238 239 241 242 243 245 246 247 250 252 254 257 258 259 258 259 259 259 259 260 259 258 257 256 259 262 264 268 272 273 275 276 278 281 281 281 282 282 281 280 281 281 280 281
240 241 242 243 244 245 248 250 252 253 255 256 258 258 258 259 259 258 257 258 258 259 259 258 260 262 266 269 273 274 275 276 278 281 281 282 281 281 281 280 280 281 280 280
240 242 243 244 247 249 250 251 252 254 255 256 258 258 258 258 259 257 256 258 257 258 258 260 261 263 266 270 273 274 274 276 278 280 281 281 281 281 281 280 280 280 279 279
239 242 244 245 247 250 251 252 254 256 256 256 256 257 258 256 255 255 256 258 257 258 259 261 261 263 265 270 274 274 273 275 277 278 280 280 281 281 280 281 282 280 278 278
239 242 244 247 249 252 252 254 255 257 257 257 256 257 257 254 252 253 255 255 257 258 259 260 261 262 265 269 273 274 273 274 275 277 277 278 279 280 281 281 281 280 278 278
240 243 245 247 250 252 254 255 255 257 258 258 258 256 256 254 252 252 253 255 257 260 260 261 262 263 266 269 271 273 274 274 275 275 276 278 278 279 281 281 280 280 279 279
241 243 245 246 250 253 254 256 257 259 260 258 257 257 257 254 253 252 254 256 258 260 260 262 263 264 266 268 272 274 273 275 275 275 276 277 278 279 279 279 279 279 279 280
246 248 249 249 251 254 255 256 258 259 260 258 258 259 257 255 253 252 254 256 257 258 260 262 265 267 267 268 271 271 271 274 276 275 275 277 278 280 279 277 276 278 280 281
248 250 251 252 254 255 256 257 259 259 258 256 257 259 257 256 253 252 254 254 255 257 260 263 265 268 270 269 269 272 274 274 276 275 275 277 278 280 277 275 275 276 278 280
249 250 251 253 254 256 256 256 258 258 256 257 259 259 258 256 254 252 254 254 256 258 260 263 266 268 270 270 268 270 272 274 274 275 276 276 278 278 275 274 274 276 278 279
Height
5866 5870 5872 5874 5875 5878 5879 5881 5882 5883 5884 5885 5886 5887 5888 5888 5889 5890 5890 5890 5890 5891 5891 5890 5890 5889 5888 5886 5885 5883 5882 5880 5879 5877 5875 5874 5873 5872 5871 5869 5868 5867 5866 5865
5864 5866 5868 5869 5871 5874 5876 5878 5879 5879 5880 5882 5883 5884 5885 5885 5886 5887 5887 5887 5887 5887 5887 5887 5887 5886 5885 5884 5883 5881 5880 5878 5877 5875 5874 5872 5871 5870 5869 5867 5866 5864 5863 5862
5860 5863 5864 5866 5868 5870 5872 5874 5875 5876 5876 5878 5880 5881 5881 5882 5882 5883 5883 5884 5884 5884 5884 5884 5884 5883 5882 5881 5880 5879 5877 5876 5875 5873 5872 5870 5869 5868 5867 5865 5864 5863 5861 5859
5855 5858 5860 5862 5864 5866 5869 5870 5871 5872 5874 5875 5877 5878 5878 5878 5878 5879 5880 5880 5880 5881 5881 5881 5880 5880 5879 5878 5877 5876 5875 5874 5872 5871 5870 5868 5867 5865 5864 5863 5861 5860 5859 5858
5851 5853 5856 5858 5860 5862 5865 5866 5867 5868 5870 5872 5872 5874 5876 5874 5874 5875 5875 5876 5876 5877 5877 5877 5877 5876 5875 5875 5874 5873 5872 5871 5870 5869 5867 5866 5864 5863 5861 5860 5859 5857 5856 5855
5847 5849 5851 5854 5856 5858 5860 5862 5863 5865 5867 5868 5869 5870 5872 5870 5870 5870 5871 5871 5872 5872 5873 5873 5873 5872 5872 5871 5870 5869 5868 5868 5867 5866 5864 5863 5862 5860 5859 5857 5856 5854 5853 5852
5842 5844 5846 5849 5851 5854 5856 5859 5861 5862 5863 5865 5865 5865 5867 5866 5866 5866 5866 5866 5867 5868 5868 5868 5868 5868 5868 5867 5866 5866 5865 5864 5863 5862 5861 5860 5858 5857 5855 5854 5852 5851 5849 5848
5838 5840 5842 5844 5847 5849 5851 5855 5858 5860 5862 5862 5860 5861 5862 5861 5861 5861 5862 5862 5863 5863 5863 5864 5864 5863 5863 5863 5862 5862 5861 5861 5860 5859 5858 5856 5855 5853 5852 5850 5848 5847 5846 5844
5833 5836 5838 5840 5842 5845 5847 5849 5852 5854 5855 5857 5857 5856 5857 5856 5856 5857 5857 5858 5858 5858 5859 5859 5859 5859 5859 5858 5858 5858 5857 5857 5856 5855 5853 5852 5851 5850 5848 5846 5845 5843 5842 5840
5828 5830 5832 5834 5837 5839 5842 5844 5846 5848 5850 5851 5852 5852 5853 5852 5852 5853 5853 5853 5853 5853 5854 5854 5854 5854 5854 5854 5854 5854 5853 5853 5852 5851 5849 5848 5847 5845 5844 5842 5841 5839 5838 5836
5822 5825 5827 5829 5831 5834 5836 5838 5840 5843 5845 5847 5848 5850 5847 5847 5848 5848 5848 5848 5848 5849 5849 5849 5849 5849 5849 5849 5849 5849 5849 5848 5847 5846 5845 5844 5842 5841 5840 5838 5836 5835 5833 5832
5816 5819 5822 5824 5826 5828 5830 5832 5834 5837 5838 5839 5841 5846 5842 5842 5842 5843 5843 5843 5843 5844 5844 5844 5844 5844 5845 5845 5845 5845 5844 5843 5842 5841 5840 5839 5838 5836 5835 5833 5832 5830 5828 5827
5810 5813 5816 5819 5821 5822 5823 5826 5828 5830 5832 5833 5835 5839 5836 5836 5837 5837 5837 5838 5838 5838 5839 5839 5839 5840 5840 5840 5840 5840 5839 5838 5837 5836 5835 5833 5833 5831 5830 5829 5827 5825 5823 5822
5804 5807 5811 5814 5816 5817 5818 5820 5822 5824 5825 5827 5829 5831 5830 5830 5831 5832 5832 5832 5832 5833 5834 5834 5834 5835 5835 5835 5835 5835 5834 5833 5832 5830 5829 5828 5827 5826 5825 5823 5822 5820 5818 5817
5797 5800 5803 5806 5809 5810 5812 5814 5815 5817 5819 5821 5822 5823 5824 5824 5825 5826 5826 5826 5827 5827 5828 5828 5829 5829 5829 5829 5829 5829 5828 5827 5826 5825 5824 5823 5822 5821 5819 5818 5816 5815 5813 5812
5790 5793 5796 5799 5801 5803 5805 5807 5809 5810 5812 5813 5815 5816 5817 5817 5818 5819 5820 5820 5821 5821 5822 5822 5823 5823 5824 5824 5823 5823 5822 5821 5820 5819 5818 5817 5816 5815 5814 5812 5811 5809 5808 5806
5783 5786 5789 5792 5794 5795 5797 5800 5802 5803 5804 5806 5807 5809 5809 5810 5811 5812 5813 5814 5814 5815 5816 5816 5817 5817 5817 5817 5817 5816 5815 5815 5814 5813 5812 5811 5810 5809 5808 5807 5805 5804 5802 5801
5776 5779 5782 5785 5787 5788 5793 5793 5794 5795 5797 5798 5799 5800 5801 5802 5803 5805 5806 5807 5807 5808 5809 5810 5810 5811 5811 5811 5811 5810 5809 5808 5807 5806 5806 5805 5804 5802 5801 5800 5799 5798 5796 5795
5769 5772 5775 5777 5779 5781 5784 5785 5786 5788 5789 5790 5791 5792 5792 5794 5795 5797 5798 5799 5800 5801 5802 5803 5803 5804 5804 5804 5804 5803 5803 5802 5801 5800 5799 5798 5797 5796 5795 5793 5792 5791 5790 5788
5763 5765 5768 5770 5772 5774 5777 5777 5778 5781 5781 5782 5783 5783 5784 5786 5788 5790 5791 5792 5793 5794 5795 5795 5796 5797 5797 5797 5797 5796 5796 5795 5794 5793 5792 5791 5790 5789 5787 5786 5785 5784 5782 5781
5756 5758 5760 5762 5764 5766 5768 5769 5771 5774 5774 5774 5774 5775 5776 5777 5780 5782 5782 5784 5785 5786 5787 5788 5789 5789 5790 5789 5789 5789 5788 5787 5787 5786 5785 5784 5782 5781 5780 5778 5777 5776 5775 5774
5749 5751 5753 5755 5757 5760 5759 5761 5763 5764 5765 5765 5766 5767 5768 5770 5771 5773 5774 5776 5777 5778 5779 5780 5781 5781 5781 5781 5781 5780 5780 5780 5779 5778 5777 5776 5774 5773 5772 5770 5769 5768 5767 5766
5741 5744 5746 5748 5750 5750 5751 5753 5754 5755 5756 5757 5758 5760 5761 5762 5763 5765 5767 5768 5770 5770 5771 5772 5772 5773 5773 5773 5772 5772 5771 5771 5771 5770 5768 5767 5766 5764 5763 5762 5762 5760 5760 5759
5734 5736 5737 5739 5741 5742 5743 5744 5746 5747 5748 5749 5750 5752 5753 5754 5755 5757 5759 5760 5761 5762 5763 5764 5764 5764 5765 5764 5764 5763 5763 5762 5762 5761 5759 5758 5757 5756 5755 5754 5754 5753 5752 5751
5727 5728 5729 5731 5733 5734 5735 5736 5738 5738 5739 5741 5742 5743 5744 5746 5747 5749 5750 5752 5753 5754 5755 5756 5756 5756 5756 5755 5755 5755 5754 5754 5753 5752 5751 5750 5749 5748 5747 5747 5746 5746 5745 5744
5719 5720 5722 5723 5725 5726 5727 5728 5729 5730 5731 5732 5734 5735 5736 5737 5739 5740 5742 5744 5745 5746 5747 5747 5747 5747 5747 5746 5746 5746 5746 5745 5744 5744 5743 5742 5741 5740 5739 5739 5739 5738 5738 5736